Torna al catalogo

OV1-5 R/B

AttivoLEO
NORAD 2123·ROCKET BODY·🇺🇸 United States

Lanciato Mar 30, 1966 da Vandenberg Space Force Base

Loading…

Prossimi Passaggi (prossime 24 ore)

TLE

AggiornatoSource: Space-Track

Epoca: Sep 14, 2026, 02:58 UTC

1 02123U 66025C   26257.12425109  .00000301  00000-0  52731-4 0  9999
2 02123 144.6417 356.2153 0046418 168.0938 192.0832 13.65907693 16966

Traccia OV1-5 R/B in tempo reale con AllMySat

Download on the App Store